{"data":{"norad_id":81617,"intl_designator":"","name":"UNKNOWN","alt_names":[],"object_type":"UNKNOWN","status":"UNKNOWN","operator":null,"country":null,"launch_date":null,"launch_site_code":null,"launch_vehicle":null,"mission":null,"orbit_class":"UNKNOWN","rcs_meters":null,"size_class":null,"mass_kg":null,"dimensions":null,"purposes":[],"wikipedia_slug":null,"has_3d_model":false,"image_url":null,"decayed_at":null,"tle_current":{"epoch":"2026-09-18T09:39:45.077184Z","epoch_age_seconds":195757,"freshness":"STALE","line1":"1 81617U          26261.40260506  .00000278  00000+0  18968-2 0  9993","line2":"2 81617 101.2864  68.9652 0033343  43.9417 316.4302 12.57736094588269","mean_motion":12.57736094,"eccentricity":0.0033343,"inclination_deg":101.2864,"raan_deg":68.9652,"arg_perigee_deg":43.9417,"mean_anomaly_deg":316.4302,"bstar":0.0018968,"rev_number":58826,"period_min":114.49142684777,"perigee_km":1406.2604940599,"apogee_km":1458.3451932011,"semimajor_km":7810.4398436305,"source":"CELESTRAK","updated_at":"2026-09-20T09:00:32.392203Z"}}}